Arlington, WA
on Wednesday, January 16, 2013

Wednesday
Previous Day Next Day
Daily Summary
 ActualAverageRecord
Temperature
Mean Temperature °F °F  
Max Temperature 41°F 45°F 55°F (2011)
Min Temperature 21°F 35°F 19°F (1997)
Degree Days
Heating Degree Days 34    
Moisture
Dew Point 25°F   
Average Humidity 87    
Maximum Humidity 100    
Minimum Humidity 70    
Precipitation
Precipitation 0.00 in in in ()
Wind
Wind Speed 0 mph   
Max Wind Speed 5 mph   
Max Gust Speed mph   
Visibility 6 miles   
Events     
Averages and records for this station are not official NWS values.
Key: T is trace of precipitation, MM is missing value
Source: NWS Daily Summary
Seasonal Weather Averages
Time(PST)TemperatureDew PointHumidity Pressure Visibility Wind DirectionWind SpeedGust SpeedPrecipitationEvents Conditions
12:15 AM 24.8°F 21.2°F 86% 30.70 in 0.5 miles Calm Calm - N/A   Overcast
12:35 AM 23.0°F 19.4°F 86% 30.70 in 0.5 miles Calm Calm - N/A   Overcast
12:55 AM 23.0°F 19.4°F 86% 30.70 in 1.0 miles Calm Calm - N/A   Mostly Cloudy
1:15 AM 23.0°F 19.4°F 86% 30.69 in 6.0 miles Calm Calm - N/A   Clear
1:35 AM 24.8°F 23.0°F 93% 30.69 in 10.0 miles North 4.6 mph - N/A   Clear
1:55 AM 24.8°F 21.2°F 86% 30.70 in 10.0 miles Calm Calm - N/A   Clear
2:35 AM 24.8°F 23.0°F 93% 30.71 in 5.0 miles Calm Calm - N/A   Clear
2:55 AM 24.8°F 21.2°F 86% 30.71 in 3.0 miles Calm Calm - N/A   Clear
3:15 AM 21.2°F 19.4°F 93% 30.70 in 1.2 miles Calm Calm - N/A   Clear
3:35 AM 23.0°F 21.2°F 93% 30.70 in 1.2 miles Calm Calm - N/A   Clear
3:55 AM 21.2°F 19.4°F 93% 30.70 in 1.8 miles Calm Calm - N/A   Clear
4:35 AM 21.2°F 15.8°F 80% 30.69 in 10.0 miles North - - N/A   Clear
4:55 AM 23.0°F 21.2°F 93% 30.68 in 9.0 miles Calm Calm - N/A   Clear
5:15 AM 23.0°F 23.0°F 100% 30.68 in 8.0 miles Calm Calm - N/A   Clear
5:35 AM 23.0°F 21.2°F 93% 30.67 in 5.0 miles Calm Calm - N/A   Clear
5:55 AM 23.0°F 21.2°F 93% 30.67 in 4.0 miles Calm Calm - N/A   Clear
6:15 AM 23.0°F 19.4°F 86% 30.67 in 10.0 miles Calm Calm - N/A   Clear
6:35 AM 23.0°F 19.4°F 86% 30.66 in 0.8 miles Calm Calm - N/A   Overcast
6:55 AM 21.2°F 19.4°F 93% 30.66 in 0.2 miles Calm Calm - N/A   Overcast
7:15 AM 21.2°F 19.4°F 93% 30.66 in 0.2 miles Calm Calm - N/A   Overcast
7:35 AM 21.2°F 19.4°F 93% 30.66 in 0.8 miles Calm Calm - N/A   Overcast
7:55 AM 21.2°F 19.4°F 93% 30.66 in 0.5 miles Calm Calm - N/A   Overcast
8:15 AM 21.2°F 19.4°F 93% 30.67 in 0.2 miles Calm Calm - N/A   Overcast
8:35 AM 21.2°F 17.6°F 86% 30.67 in 0.2 miles Calm Calm - N/A   Overcast
8:55 AM 23.0°F 19.4°F 86% 30.66 in 1.2 miles Calm Calm - N/A   Overcast
9:15 AM 24.8°F 24.8°F 100% 30.67 in 2.5 miles Calm Calm - N/A   Mostly Cloudy
9:35 AM 26.6°F 24.8°F 93% 30.66 in 10.0 miles Calm Calm - N/A   Clear
9:55 AM 28.4°F 26.6°F 93% 30.66 in 10.0 miles Calm Calm - N/A   Clear
10:15 AM 28.4°F 26.6°F 93% 30.65 in 10.0 miles Calm Calm - N/A   Clear
10:35 AM 30.2°F 28.4°F 93% 30.65 in 10.0 miles Calm Calm - N/A   Clear
11:15 AM 32.0°F 30.2°F 93% 30.64 in 10.0 miles Calm Calm - N/A   Clear
11:35 AM 32.0°F 30.2°F 93% 30.64 in 10.0 miles Calm Calm - N/A   Clear
11:55 AM 33.8°F 30.2°F 87% 30.64 in 10.0 miles Calm Calm - N/A   Clear
12:15 PM 35.6°F 32.0°F 87% 30.63 in 10.0 miles Calm Calm - N/A   Clear
12:35 PM 37.4°F 33.8°F 87% 30.63 in 10.0 miles Calm Calm - N/A   Clear
12:55 PM 39.2°F 32.0°F 75% 30.62 in 10.0 miles Calm Calm - N/A   Clear
1:15 PM 39.2°F 30.2°F 70% 30.61 in 10.0 miles Calm Calm - N/A   Clear
1:35 PM 39.2°F 30.2°F 70% 30.61 in 10.0 miles Calm Calm - N/A   Clear
1:55 PM 39.2°F 32.0°F 75% 30.60 in 10.0 miles Calm Calm - N/A   Clear
2:15 PM 41.0°F 32.0°F 70% 30.60 in 10.0 miles Calm Calm - N/A   Clear
2:35 PM 41.0°F 32.0°F 70% 30.60 in 10.0 miles Calm Calm - N/A   Clear
2:55 PM 41.0°F 32.0°F 70% 30.60 in 10.0 miles NNW 3.5 mph - N/A   Clear
3:15 PM 41.0°F 32.0°F 70% 30.60 in 10.0 miles Calm Calm - N/A   Clear
3:35 PM 41.0°F 32.0°F 70% 30.59 in 10.0 miles Calm Calm - N/A   Clear
3:55 PM 39.2°F 32.0°F 75% 30.59 in 10.0 miles Calm Calm - N/A   Clear
4:15 PM 39.2°F 30.2°F 70% 30.58 in 10.0 miles Calm Calm - N/A   Clear
4:35 PM 37.4°F 30.2°F 75% 30.58 in 10.0 miles Calm Calm - N/A   Clear
4:55 PM 35.6°F 30.2°F 81% 30.58 in 10.0 miles Calm Calm - N/A   Clear
5:15 PM 32.0°F 28.4°F 87% 30.59 in 10.0 miles Calm Calm - N/A   Clear
5:35 PM 33.8°F 28.4°F 81% 30.58 in 10.0 miles Calm Calm - N/A   Clear
5:55 PM 30.2°F 26.6°F 86% 30.58 in 10.0 miles Calm Calm - N/A   Clear
6:15 PM 32.0°F 28.4°F 87% 30.58 in 10.0 miles Calm Calm - N/A   Clear
6:35 PM 33.8°F 28.4°F 81% 30.57 in 10.0 miles Calm Calm - N/A   Clear
6:55 PM 30.2°F 28.4°F 93% 30.58 in 10.0 miles Calm Calm - N/A   Clear
7:15 PM 30.2°F 26.6°F 86% 30.58 in 6.0 miles Calm Calm - N/A   Clear
7:35 PM 28.4°F 26.6°F 93% 30.57 in 5.0 miles Calm Calm - N/A   Clear
7:55 PM 28.4°F 26.6°F 93% 30.56 in 0.5 miles Calm Calm - N/A   Unknown
8:15 PM 26.6°F 26.6°F 100% 30.56 in 0.5 miles Calm Calm - N/A   Unknown
8:35 PM 28.4°F 26.6°F 93% 30.56 in 0.2 miles Calm Calm - N/A   Mostly Cloudy
8:55 PM 26.6°F 26.6°F 100% 30.55 in 0.2 miles Calm Calm - N/A   Mostly Cloudy
9:15 PM 26.6°F 23.0°F 86% 30.55 in 0.8 miles Calm Calm - N/A   Mostly Cloudy
9:35 PM 26.6°F 24.8°F 93% 30.56 in 0.2 miles Calm Calm - N/A   Overcast
9:55 PM 26.6°F 24.8°F 93% 30.55 in 0.2 miles Calm Calm - N/A   Overcast
10:15 PM 26.6°F 24.8°F 93% 30.55 in 0.2 miles Calm Calm - N/A   Overcast
10:35 PM 26.6°F 24.8°F 93% 30.55 in 0.5 miles Calm Calm - N/A   Overcast
10:55 PM 26.6°F 26.6°F 100% 30.55 in 0.2 miles Calm Calm - N/A   Overcast
11:15 PM 26.6°F 26.6°F 100% 30.54 in 0.2 miles Calm Calm - N/A   Overcast
11:35 PM 26.6°F 24.8°F 93% 30.55 in 0.5 miles Calm Calm - N/A   Overcast
11:55 PM 26.6°F 24.8°F 93% 30.55 in 0.5 miles Calm Calm - N/A   Overcast
Moon Phase
Jan. 16 Jan. 18 Jan. 26 Feb. 03 Feb. 10
Sunrise:07:53 AM (PST) Moon Rise:10:02 AM (PST)1/16
Sunset:04:44 PM (PST) Moon Set:11:13 PM (PST)1/16

Copyright © 2014 The Weather Underground, Inc.